Weather History for Jamestown, ND

Change the Weather History Date:

Monday, January 13, 2014

  Actual Average Record
Temperature  
Mean Temperature 19 °F 10 °F  
Max Temperature 28 °F 20 °F 48 °F (1896)
Min Temperature 10 °F 0 °F -40 °F (1916)
Degree Days  
Heating Degree Days 46 55  
Month to date heating degree days 769 713  
Since 1 July heating degree days 4639 4373  
Cooling Degree Days 0 0  
Month to date cooling degree days 0 0  
Year to date cooling degree days 0 0  
Moisture  
Dew Point 18 °F    
Average Humidity 83    
Maximum Humidity 92    
Minimum Humidity 73    
Precipitation  
Precipitation 0.01 in 0.02 in 0.15 in (1950)
Month to date precipitation 0.06 0.21  
Year to date precipitation 0.06 0.21  
Sea Level Pressure  
Sea Level Pressure 29.60 in    
Wind  
Wind Speed 11 mph (West)    
Max Wind Speed 38 mph    
Max Gust Speed 47 mph    
Visibility 7 miles    
Events Snow    
T = Trace of Precipitation, MM = Missing Value Source: NWS Daily Summary

Daily Weather History Graph

Daily Weather History Graph

Search for Another Location

Airport:

Trip Planner

Search our weather history database for the weather conditions in past years. The results will help you decide how hot, cold, wet, or windy it might be!

Date:

Astronomy

Jan. 13, 2014 Rise Set
Actual Time 8:16 AM CST 5:10 PM CST
Civil Twilight 7:42 AM CST 5:44 PM CST
Nautical Twilight 7:04 AM CST 6:22 PM CST
Astronomical Twilight 6:28 AM CST 6:59 PM CST
Moon 3:27 PM CST (1/13) 6:05 AM CST (1/13)
Length of Visible Light 10h 02m
Length of Day
8h 53m
Waxing Gibbous, 95% of the Moon is Illuminated
Jan 13
Waxing Gibbous
Jan 15
Full
Jan 23
Last Quarter
Jan 30
New
Feb 6
First Quarter

Hourly Weather History & Observations

Time (CST) Temp. Windchill Dew Point Humidity Pressure Visibility Wind Dir Wind Speed Gust Speed Precip Events Conditions
12:16 AM 26.1 °F 15.6 °F 19.9 °F 78% 29.60 in 10.0 mi West 11.5 mph - N/A   Mostly Cloudy
12:28 AM 26.1 °F 16.2 °F 19.0 °F 75% 29.61 in 10.0 mi West 10.4 mph - N/A   Scattered Clouds
12:56 AM 25.0 °F 10.9 °F 17.1 °F 72% 29.65 in 10.0 mi NW 19.6 mph 27.6 mph N/A   Clear
1:56 AM 23.0 °F 9.2 °F 18.0 °F 81% 29.67 in 10.0 mi WNW 17.3 mph - N/A   Clear
2:56 AM 21.9 °F 7.3 °F 16.0 °F 78% 29.68 in 10.0 mi WNW 18.4 mph 27.6 mph N/A   Clear
3:56 AM 19.9 °F 7.3 °F 15.1 °F 81% 29.69 in 10.0 mi WNW 12.7 mph - N/A   Clear
4:56 AM 18.0 °F 4.2 °F 14.0 °F 84% 29.69 in 10.0 mi WNW 13.8 mph - N/A   Clear
5:56 AM 17.1 °F 5.0 °F 12.9 °F 84% 29.69 in 10.0 mi WNW 10.4 mph - N/A   Clear
6:56 AM 15.1 °F 2.5 °F 10.9 °F 84% 29.70 in 10.0 mi NW 10.4 mph - N/A   Clear
7:56 AM 12.9 °F 6.9 °F 9.0 °F 84% 29.70 in 10.0 mi WNW 3.5 mph - N/A   Clear
8:56 AM 10.9 °F - 7.0 °F 84% 29.70 in 10.0 mi Calm Calm - N/A   Clear
9:56 AM 15.1 °F - 12.0 °F 88% 29.70 in 10.0 mi Calm Calm - N/A   Clear
10:56 AM 18.0 °F 12.7 °F 10.9 °F 74% 29.69 in 10.0 mi WSW 3.5 mph - N/A   Scattered Clouds
11:56 AM 19.0 °F 11.1 °F 12.9 °F 77% 29.67 in 10.0 mi SSE 5.8 mph - N/A   Overcast
12:56 PM 19.9 °F 8.6 °F 14.0 °F 78% 29.64 in 4.0 mi SSW 10.4 mph - 0.00 in Snow Light Snow
1:01 PM 19.0 °F 8.2 °F 15.1 °F 85% 29.56 in 1.8 mi South 9.2 mph - 0.00 in Snow Light Snow
1:32 PM 19.9 °F 9.3 °F 17.1 °F 89% 29.53 in 2.0 mi South 9.2 mph - 0.00 in Snow Light Snow
1:40 PM 19.9 °F 7.9 °F 17.1 °F 89% 29.53 in 4.0 mi South 11.5 mph - 0.00 in Snow Light Snow
1:56 PM 21.0 °F 9.3 °F 19.0 °F 92% 29.59 in 9.0 mi South 11.5 mph - 0.00 in   Overcast
2:15 PM 21.9 °F 10.4 °F 18.0 °F 85% 29.51 in 10.0 mi South 11.5 mph - N/A   Scattered Clouds
2:56 PM 23.0 °F 13.9 °F 18.0 °F 81% 29.56 in 10.0 mi South 8.1 mph - N/A   Partly Cloudy
3:56 PM 23.0 °F 13.9 °F 19.0 °F 85% 29.55 in 10.0 mi SSE 8.1 mph - N/A   Scattered Clouds
4:56 PM 21.9 °F 12.5 °F 19.0 °F 89% 29.55 in 10.0 mi SE 8.1 mph - N/A   Clear
5:56 PM 21.9 °F 12.5 °F 19.0 °F 89% 29.55 in 10.0 mi East 8.1 mph - N/A   Mostly Cloudy
6:56 PM 21.9 °F 11.7 °F 19.0 °F 89% 29.54 in 10.0 mi ESE 9.2 mph - N/A   Overcast
7:56 PM 21.0 °F 9.9 °F 19.9 °F 96% 29.54 in 10.0 mi ESE 10.4 mph - 0.00 in   Overcast
8:40 PM 21.9 °F - 19.9 °F 92% 29.49 in 10.0 mi Calm Calm - N/A   Overcast
8:56 PM 21.9 °F - 19.9 °F 92% 29.57 in 10.0 mi Calm Calm - N/A   Overcast
9:46 PM 21.9 °F 13.4 °F 21.0 °F 96% 29.51 in 2.5 mi West 6.9 mph - 0.00 in Snow Light Snow
9:53 PM 23.0 °F 14.7 °F 21.2 °F 93% 29.51 in 3.0 mi West 6.9 mph - 0.00 in Snow Light Snow
9:56 PM 23.0 °F 14.7 °F 21.0 °F 92% 29.60 in 2.5 mi West 6.9 mph - 0.00 in Snow Light Snow
10:04 PM 23.0 °F 13.9 °F 21.0 °F 92% 29.52 in 0.8 mi WNW 8.1 mph - 0.00 in Snow Light Snow
10:12 PM 23.0 °F 13.9 °F 21.0 °F 92% 29.52 in 2.0 mi WNW 8.1 mph - 0.01 in Snow Light Snow
10:15 PM 23.0 °F 13.9 °F 21.9 °F 96% 29.52 in 3.0 mi WNW 8.1 mph - 0.01 in Snow Light Snow
10:52 PM 26.6 °F 10.6 °F 24.8 °F 93% 29.55 in 7.0 mi NW 28.8 mph 35.7 mph 0.01 in   Mostly Cloudy
10:56 PM 27.0 °F 9.8 °F 24.1 °F 89% 29.62 in 3.0 mi NW 34.5 mph 43.7 mph 0.01 in   Mostly Cloudy
10:59 PM 27.0 °F 10.0 °F 24.1 °F 89% 29.56 in 1.8 mi NW 33.4 mph 43.7 mph 0.00 in   Mostly Cloudy
11:10 PM 26.1 °F 8.4 °F 21.9 °F 84% 29.58 in 3.0 mi NW 35.7 mph 47.2 mph 0.00 in   Overcast
11:56 PM 25.0 °F 7.1 °F 19.9 °F 81% 29.70 in 8.0 mi NW 34.5 mph 44.9 mph 0.00 in   Overcast